Главная страница
METAR-TAF:

METAR-TAF

Аэропорты :

Somerset Airport

Сомервилл, Нью-Джерси, США

широта: 40-37-26N, долгота: 074-40-10W, высота над уровнем моря: 32 м

Текущие метеонаблюдения

Эта сводка был подготовлена 42 минут назад, в 13:53 UTC
Ветер 3 Узел переменных направлений
Температура 14°C
Влажность 88%
Давление 1004 hPa
Видимость: 16.1 км
Сплошная облачность на высоте 1200 фута

METAR: KSMQ 261353Z AUTO VRB03KT 10SM OVC012 14/12 A2965 RMK AO2 SLP042 T01390122

Время: 10:35 (14:35 UTC)


TAF: отсутствует

Метеонаблюдения и прогнозы для более 4000 аэропортов (сводки METAR и TAF).

Имеющиеся станции представлены на карте желтыми и красными точками.

Чтобы увидеть название станции, наведите на нее мышь.

Затем щелкните, чтобы увидеть метеонаблюдения и метеопрогнозы.

Управление картой: чтобы увеличить масштаб, щелкните зеленые кнопки с черным крестиком; чтобы уменьшить масштаб, щелкните зеленую кнопку с тире; для просмотра соседних карт щелкайте зеленые стрелки.


METAR-TAF: